Other Surface Observations
Issued by NWS

Home | Current Version | Previous Version | Text Only | Print | Product List | Glossary On
Versions: 1 2 3 4 5 6 7 8 9 10 11 12 13 14 15 16 17 18 19 20 21 22 23 24 25 26 27 28 29 30 31 32 33 34 35 36 37 38 39 40 41 42 43 44 45 46 47 48 49 50
000
SXUS52 KTAE 311418
OSOTAE
OSOTAE
North Florida/South Alabama/Southwest Georgia Weather Roundup
National Weather Service Tallahassee Florida
900 AM EST SAT JAN 31 2015

Note: "fair" indicates few or no clouds below 12,000 feet with no
significant weather and/or obstructions to visibility.

!FLZ017-115-028-034-025-311500
...North Florida...

CITY           SKY/WX    TMP DP  RH WIND       PRES   REMARKS
TALLAHASSEE    MOSUNNY   44  25  47 E8        30.35R WCI  39
APALACHICOLA   SUNNY     44  30  57 NE10      30.32S WCI  39
PERRY          SUNNY     40  31  69 NE7       30.35R WCI  36
CROSS CITY       N/A     42  32  67 NE5       30.33R WCI  39
JACKSONVILLE   MOSUNNY   44  38  79 NE5       30.33R WCI  42
$$

!FLZ112-006-005-002-011-311500
...Florida Panhandle...

CITY           SKY/WX    TMP DP  RH WIND       PRES   REMARKS
MARIANNA       SUNNY     38  30  73 NE6       30.36R WCI  33
BONIFAY        FAIR      39  29  67 NE6       30.36R WCI  35
PANAMA CITY NW FAIR      41  29  62 NE7       30.33R WCI  36
TYNDALL AFB    SUNNY     42  28  59 NE6       30.34R WCI  38
TYND DRONE APT FAIR      41  30  65 NE9       30.32S WCI  35
DE FUNIAK SPR  FAIR      39  25  56 NE10      30.34R WCI  32
EGLIN AFB      MOSUNNY   40  25  54 E13       30.33R WCI  33
DESTIN         SUNNY     45  30  55 E12G18    30.33R WCI  39
HURLBURT       SUNNY     42  22  45 NE10      30.32R WCI  35
CRESTVIEW      SUNNY     38  28  67 NE3       30.35R
PENSACOLA      SUNNY     41  26  55 E8        30.33R WCI  36
$$

!ALZ063-066-311500
...South Alabama...

CITY           SKY/WX    TMP DP  RH WIND       PRES   REMARKS
DOTHAN         SUNNY     39  25  57 E7        30.38R WCI  34
OZARK CAIRNS   SUNNY     36  25  64 NE9       30.34S WCI  29
FT RUCKER HELI SUNNY     37  27  67 NE3       30.35R
RUCKER HELI 3  FAIR      37  25  62 E7        30.36R WCI  32
RUCKER HELI 2  FAIR      36  25  64 E5        30.35R WCI  32
FLORALA APT    SUNNY     39  26  59 E8        30.35R WCI  33
ANDALUSIA      SUNNY     41  26  55 E6        30.34S WCI  37
TROY           SUNNY     36  26  67 NE6       30.37R WCI  31
EUFALA         FAIR      37  26  64 CALM      30.36R
MOBILE         MOSUNNY   39  27  62 E12       30.34R WCI  32
$$

!GAZ120>161-311500
...Southwest and South Central Georgia...

CITY           SKY/WX    TMP DP  RH WIND       PRES   REMARKS
THOMASVILLE    FAIR      41  30  65 NE7       30.36R WCI  36
BAINBRIDGE     SUNNY     41  32  70 E8        30.36S WCI  36
MOODY AFB      SUNNY     40  26  57 E7        30.35R WCI  36
VALDOSTA       SUNNY     41  26  55 NE9       30.36R WCI  35
MOULTRIE       SUNNY     41  28  60 NE3       30.37R
BLAKELY        SUNNY     39  28  65 NE5       30.37R WCI  36
ALBANY         SUNNY     39  26  59 NE8       30.38S WCI  33
TIFTON         FAIR      37  23  56 E6        30.36R WCI  33
FITZGERALD     FAIR      40  22  47 E6        30.39R WCI  36
CORDELE        FAIR      37  26  65 NE3       30.38S
AMERICUS       FAIR      34  27  75 NE6       30.38R WCI  29
HOMERVILLE     FAIR      43  32  65 E5        30.36R WCI  40
$$

!GMZ750-755-770-775-311500
...Coastal and Buoy Obs...

STATION/POSITION TIME  TEMP    WIND        PRES    VSBY  WAVE
                       AIR SEA DIR/SP/G                  HT/PER
                 (UTC) (F)     (DEG/KT/KT) (MB)    (MI)  (FT/S)
KEATON BEACH     1400   42      60/  6/ 11 1027.2R
CEDAR KEY        1400   45      50/ 12/ 14 1026.4S
C TOWER          1400   51      70/ 18/ 20 1026.3R
APALACHICOLA BUO 1400   58 67   80/ 17/ 19 1025.5R         5/ 6
PANAMA CITY BUOY 1348   59 69   90/ 17/ 21 1025.4R         5/ 6
MOBILE BUOY      1300   60 68  100/ 17/ 19 1025.5R         5/ 6
ORANGE BCH AL BU 1400   54 62   80/ 17/ 21 1025.5R         4/ 5
$$



USA.gov is the U.S. government's official web portal to all federal, state and local government web resources and services.